CW2628 Weather Reports


time (UTC)temp
F
wind
direction
speed
knots
gust
knots
rain 1hr
in
rain 24hr
in
rain mn
in
humidity
%
barometer
mb
20260507225809 57 282 0.9 2.6 0.00 0.00 0.00 74 1014.1
20260507215309 57 239 3.5 10.4 0.00 0.00 0.00 80 1013.9
20260507195809 59 240 1.7 6.1 0.00 0.00 0.00 76 1013.0
20260507195309 59 245 2.6 6.1 0.00 0.00 0.00 75 1013.0
20260507185810 60 247 1.7 4.3 0.00 0.00 0.00 73 1012.2
20260507185308 60 250 0.9 6.1 0.00 0.00 0.00 73 1012.2
20260507175310 62 253 1.7 6.1 0.00 0.00 0.00 63 1011.9
20260507165809 65 246 2.6 10.4 0.00 0.00 0.00 57 1011.3
20260507165310 65 241 4.3 10.4 0.00 0.00 0.00 56 1011.2
20260507155809 68 212 0.9 6.1 0.00 0.00 0.00 49 1010.6
20260507155310 68 207 1.7 5.2 0.00 0.00 0.00 47 1010.6
20260507145310 71 202 1.7 7.0 0.00 0.00 0.00 42 1010.5
20260507135308 70 277 0.9 2.6 0.00 0.00 0.00 52 1010.8
20260507125309 69 218 0.9 2.6 0.00 0.00 0.00 49 1011.0
20260507115808 66 286 0.9 4.3 0.00 0.00 0.00 55 1011.4
20260507115309 66 255 0.9 4.3 0.00 0.00 0.00 56 1011.3
20260507095808 64 262 4.3 8.7 0.00 0.00 0.00 62 1011.8
20260507095308 64 263 2.6 8.7 0.00 0.00 0.00 64 1011.8
20260507085809 62 278 3.5 7.8 0.00 0.00 0.00 65 1011.4
20260507085308 62 272 4.3 7.8 0.00 0.00 0.00 63 1011.3
20260507075308 60 250 5.2 10.4 0.00 0.00 0.00 69 1010.8
20260507025808 57 251 1.7 6.1 0.00 0.00 0.00 74 1008.2
20260506235307 60 249 4.3 10.4 0.00 0.00 0.00 73 1006.9